Flag for Norway Weather past 2 weeks in Grimstad, Norway

Now
67 °F

Mild.


Feels Like: 67 °F
Forecast: 59 / 70 °F
Wind: 8 mph from West

Location: Torungen Fyr

Current Time: Jul 30, 2014 at 2:18:17 AM

Latest Report: Jul 30, 2014 at 1:00 AM


Visibility: N/A

Pressure: 29.71 "Hg

Humidity: 68%

Dew point: 56 °F

Location of GrimstadLocation

Historic Weather in Grimstad — Graph

°F

Grimstad temperature yesterday

Maximum temperature yesterday: 73 °F (at 1:00 PM)
Minimum temperature yesterday: 64 °F (at 6:00 AM)
Average temperature yesterday: 70 °F

Past Weeks' High & Low Weather Summary

 TemperatureHumidityPressure
High77 °F (Jul 24, 4:00 PM)95% (Jul 15, 2:00 PM)30.30 "Hg (Jul 15, 2:00 PM)
Low57 °F (Jul 19, 5:00 AM)48% (Jul 16, 12:00 PM)29.71 "Hg (Jul 29, 10:00 PM)
Average68 °F77%30.05 "Hg
* Reported Jul 15 1:00 AM — Jul 30 1:00 AM, Grimstad, Weather by CustomWeather, © 2014

Note: Actual official high and low records may vary slightly from our data, if they occured in-between our weather recording intervals... More about our weather records

Advertising

Grimstad weather history for previous 24 hours

 ConditionsComfort  
Time TempWeatherWind HumidityBarometerVisibility
1:00 AM
Jul 30
67 °FMild.8 mph68%29.71 "HgN/A
12:00 AM69 °FMild.7 mph67%29.72 "HgN/A
11:00 PM
Jul 29
71 °FMild.7 mph69%29.72 "HgN/A
10:00 PM70 °FMild.9 mph85%29.71 "HgN/A
9:00 PM70 °FMild.10 mph83%29.71 "HgN/A
8:00 PM70 °FMild.10 mph81%29.72 "HgN/A
7:00 PM70 °FMild.13 mph81%29.73 "HgN/A
6:00 PM71 °FMild.10 mph79%29.75 "HgN/A
5:00 PM72 °FMild.10 mph78%29.77 "HgN/A
4:00 PM72 °FMild.9 mph75%29.78 "HgN/A
3:00 PM72 °FMild.7 mph78%29.80 "HgN/A
2:00 PM72 °FMild.5 mph76%29.82 "HgN/A
1:00 PM73 °FMild.5 mph74%29.83 "HgN/A
12:00 PM72 °FMild.3 mph78%29.83 "HgN/A
11:00 AM71 °FMild.3 mph78%29.83 "HgN/A
10:00 AM70 °FMild.5 mph84%29.84 "HgN/A
9:00 AM69 °FMild.6 mph86%29.84 "HgN/A
8:00 AM67 °FMild.3 mph82%29.84 "HgN/A
7:00 AM65 °FMild.3 mph84%29.83 "HgN/A
6:00 AM64 °FMild.2 mph89%29.84 "HgN/A
5:00 AM65 °FMild.3 mph92%29.85 "HgN/A
4:00 AM65 °FMild.2 mph90%29.86 "HgN/A
3:00 AM67 °FMild.2 mph88%29.87 "HgN/A
2:00 AM69 °FMild.5 mph86%29.88 "HgN/A
Weather by CustomWeather, © 2014

See weather overviewHow to use our weather pages